Temp
20 18 17 18 17 18 16 16 16 15 13 13 12 11 10 10 10 9 8 6 6 5 5 5 5 5 5 5 6 7 7 7 6 6 7 7 7 7 6 6 5 5 4
20 17 18 18 18 17 16 15 15 14 13 12 11 10 10 9 8 7 6 5 5 4 5 5 5 4 4 5 6 6 6 6 6 5 6 6 6 6 6 6 5 5 4
22 19 19 17 15 15 14 13 13 12 12 11 11 10 9 8 7 6 6 5 5 5 5 5 4 4 4 4 5 5 5 6 6 6 5 5 5 5 6 5 5 5 4
20 16 15 14 14 12 12 11 11 10 10 9 8 8 7 6 6 6 5 5 5 5 4 4 4 3 4 4 4 4 5 5 5 5 5 5 5 5 5 5 5 4 4
14 12 11 12 12 11 10 9 8 8 7 7 6 6 6 6 5 5 4 4 4 3 3 3 3 3 3 3 4 4 5 5 5 4 4 5 4 4 5 5 4 3 3
13 12 11 11 10 9 8 7 7 6 6 5 5 5 4 4 4 4 4 4 3 3 3 3 4 4 5 5 5 5 5 5 4 3 3 3 4 4 4 3 2 2 -0
13 13 12 11 10 9 9 8 7 7 6 6 5 5 4 4 4 4 3 3 3 3 4 4 5 5 6 5 5 5 5 5 5 4 3 2 2 3 3 2 2 1 0
13 12 11 10 9 9 9 8 6 6 6 5 5 5 5 5 4 4 3 3 3 4 4 4 4 4 5 4 4 4 4 4 4 4 4 3 3 2 2 2 1 1 0
12 11 11 10 9 8 8 7 6 6 5 5 5 5 5 5 4 3 2 2 2 2 2 2 2 2 1 1 1 -0 0 1 2 3 3 3 3 2 1 1 0 -0 -1
12 11 10 9 9 6 7 6 6 6 6 7 6 6 5 3 2 2 2 1 -0 -0 -0 -1 -1 -1 -1 -1 -2 -3 -3 -2 -1 -0 0 1 2 2 1 -0 -0 -1 -3
11 10 9 7 6 6 5 6 6 7 6 5 4 4 4 2 1 1 0 -1 -2 -3 -3 -3 -3 -4 -4 -3 -3 -4 -4 -3 -3 -3 -3 -2 -1 1 0 -1 -1 -1 -3
9 7 7 6 5 5 6 6 6 6 5 4 3 3 3 1 0 -1 -2 -2 -3 -4 -5 -5 -5 -5 -4 -4 -4 -3 -3 -3 -3 -3 -3 -2 -2 -1 -1 -2 -2 -2 -2
7 6 7 7 7 7 6 6 6 5 4 2 2 2 1 0 -1 -2 -2 -3 -5 -6 -6 -6 -6 -4 -4 -4 -4 -3 -3 -4 -3 -3 -3 -3 -2 -2 -2 -1 -2 -3 -3
7 7 7 6 6 6 5 5 3 2 1 1 1 -0 -1 -2 -3 -4 -5 -6 -7 -7 -7 -7 -6 -5 -4 -5 -5 -5 -4 -3 -4 -3 -3 -2 -3 -2 -2 -2 -2 -3 -4
7 6 5 5 5 4 2 1 0 -1 -1 -1 -3 -3 -4 -5 -7 -8 -8 -8 -8 -8 -8 -7 -6 -5 -6 -6 -7 -6 -6 -6 -6 -6 -6 -3 -2 -2 -2 -2 -2 -3 -3
5 4 3 3 3 3 0 -1 -2 -2 -3 -3 -4 -5 -6 -7 -8 -9 -9 -8 -8 -8 -7 -6 -6 -6 -7 -7 -8 -8 -8 -8 -8 -7 -8 -6 -2 -2 -2 -3 -3 -3 -4
2 1 1 1 1 1 1 -0 -4 -5 -5 -5 -5 -6 -6 -7 -8 -9 -9 -8 -7 -7 -7 -7 -7 -8 -8 -8 -9 -9 -9 -9 -9 -9 -8 -6 -2 -2 -2 -2 -3 -3 -4
1 1 0 -0 -1 -1 -1 -2 -2 -3 -3 -5 -6 -6 -7 -8 -9 -9 -9 -8 -8 -8 -8 -8 -8 -9 -9 -10 -10 -10 -10 -10 -10 -11 -9 -5 -3 -2 -2 -3 -3 -3 -4
-1 -2 -3 -4 -5 -5 -5 -5 -4 -4 -4 -4 -5 -5 -7 -9 -8 -9 -8 -8 -9 -9 -9 -9 -10 -10 -11 -11 -11 -11 -11 -11 -11 -11 -9 -7 -3 -3 -3 -3 -3 -3 -3
-6 -6 -5 -6 -6 -5 -5 -5 -5 -5 -5 -5 -6 -6 -8 -9 -10 -10 -9 -9 -10 -10 -11 -11 -11 -12 -12 -12 -12 -12 -12 -12 -12 -12 -11 -11 -10 -4 -3 -3 -3 -3 -4
-7 -7 -6 -6 -6 -6 -7 -6 -6 -7 -7 -7 -7 -8 -9 -10 -11 -10 -10 -10 -11 -12 -12 -12 -13 -13 -13 -13 -14 -14 -13 -14 -13 -13 -12 -13 -12 -10 -5 -4 -4 -3 -4
-7 -7 -7 -7 -7 -8 -8 -8 -8 -8 -8 -8 -9 -9 -10 -10 -10 -11 -11 -12 -12 -12 -13 -14 -14 -14 -14 -15 -15 -15 -14 -15 -14 -14 -14 -14 -13 -12 -9 -7 -3 -4 -4
-8 -8 -8 -8 -9 -9 -9 -9 -9 -9 -10 -10 -10 -11 -11 -11 -12 -12 -12 -13 -13 -14 -14 -15 -15 -15 -16 -16 -16 -15 -15 -15 -15 -15 -14 -15 -15 -14 -12 -9 -5 -4 -4
-9 -9 -9 -9 -10 -10 -10 -10 -11 -10 -11 -11 -11 -12 -12 -12 -13 -13 -13 -14 -14 -15 -15 -16 -16 -16 -17 -16 -16 -17 -16 -16 -16 -15 -15 -15 -15 -14 -13 -11 -9 -4 -4
-10 -10 -10 -10 -10 -10 -11 -11 -11 -11 -12 -12 -12 -13 -13 -13 -14 -14 -15 -15 -16 -16 -16 -17 -17 -17 -17 -17 -17 -17 -16 -16 -16 -16 -16 -16 -16 -15 -13 -11 -8 -5 -4
-10 -11 -11 -11 -11 -11 -12 -12 -12 -13 -13 -13 -14 -14 -14 -15 -15 -16 -16 -16 -16 -17 -17 -18 -18 -18 -18 -17 -17 -16 -16 -16 -16 -15 -16 -16 -16 -15 -13 -11 -9 -6 -5
Height
752 754 761 767 773 778 782 785 789 791 794 798 800 803 806 808 811 814 816 820 824 826 834 834 837 838 838 839 838 838 837 837 835 833 833 833 832 832 832 831 831 830 829
746 750 757 764 770 775 779 783 786 789 791 794 797 800 803 805 809 811 816 819 821 827 830 831 833 834 834 835 834 833 832 832 831 827 827 826 825 826 825 825 824 823 823
739 747 755 760 765 771 776 779 783 785 788 790 794 796 800 803 806 810 814 817 821 823 826 827 828 830 830 830 829 828 828 827 825 822 818 819 818 819 818 817 816 816 815
739 746 753 761 765 770 774 777 781 783 786 789 792 795 798 803 807 809 812 815 819 822 823 825 826 826 826 825 825 824 823 821 819 816 813 811 811 811 811 809 808 808 809
742 749 756 760 764 769 773 777 780 783 786 789 792 797 800 803 806 810 814 818 820 821 822 822 822 821 820 820 820 818 818 815 813 812 808 805 803 804 803 802 802 803 803
747 754 759 763 766 772 776 779 783 786 789 792 796 799 803 806 809 813 815 816 817 818 818 817 817 816 815 813 812 811 811 808 805 804 800 800 797 797 797 796 796 797 797
748 754 760 764 769 774 778 782 786 788 792 795 798 801 805 807 809 812 813 814 814 814 814 813 812 810 809 807 805 803 801 799 797 794 791 790 789 789 790 790 790 791 790
751 756 762 767 771 776 779 783 786 790 793 796 799 801 803 805 807 809 810 811 812 812 812 811 811 809 807 804 799 796 792 790 788 786 783 781 781 781 782 781 782 783 784
752 758 763 767 771 776 780 784 788 791 794 796 798 800 801 803 805 806 808 809 809 809 809 807 805 804 802 799 795 791 785 782 781 779 776 773 772 771 773 775 775 776 777
753 758 762 767 771 775 780 785 788 790 792 795 797 799 802 802 805 806 806 806 806 805 805 803 801 800 798 796 792 788 783 778 775 771 768 765 763 762 763 765 767 769 772
754 758 762 766 772 777 780 783 786 788 791 794 797 798 800 799 801 802 802 802 802 802 801 798 797 795 793 790 787 782 777 773 769 766 762 759 755 750 752 754 758 760 763
753 758 764 769 773 776 779 782 785 788 791 794 796 798 800 799 800 800 800 800 801 800 799 797 794 790 786 782 778 773 769 766 763 759 754 751 750 748 746 747 749 751 754
756 760 764 768 771 775 778 782 785 787 790 793 795 797 799 800 800 797 798 799 799 798 796 794 789 785 780 775 772 768 763 758 754 751 747 745 743 741 740 740 744 746 749
757 761 764 767 771 775 778 781 783 786 789 792 794 796 797 798 797 797 797 797 796 795 791 788 785 781 779 775 769 766 762 757 752 745 739 736 734 734 732 732 735 740 743
758 762 765 769 773 775 778 782 784 788 790 791 793 795 795 797 797 796 795 795 794 793 788 786 783 779 776 772 768 765 760 755 749 744 738 729 727 725 722 724 730 734 736
758 762 767 771 774 778 781 786 788 789 791 792 793 794 795 795 794 792 792 793 791 790 787 784 781 779 776 772 767 762 758 753 748 741 734 726 721 720 719 722 726 729 731
758 764 769 772 776 779 782 786 789 791 791 793 793 794 795 795 792 791 790 789 787 788 786 783 780 778 774 771 769 765 758 753 746 738 731 719 715 715 716 718 721 724 727
761 766 769 771 775 779 782 785 788 791 790 790 791 793 793 793 791 789 787 786 787 786 784 782 779 777 774 770 766 762 757 750 743 735 725 711 709 709 711 714 717 719 722
764 767 770 774 777 781 784 787 789 790 791 790 791 792 793 791 789 786 786 786 786 784 783 781 778 775 772 769 765 761 755 749 744 735 724 711 703 707 709 711 713 714 717
769 772 775 778 781 784 786 788 788 789 790 790 790 791 789 787 785 784 785 784 783 782 781 779 776 773 770 766 762 758 753 748 742 736 728 721 713 707 707 708 710 711 712
774 776 778 781 782 785 786 788 788 789 789 790 790 789 788 785 784 784 784 783 782 780 779 777 773 770 767 765 760 756 752 747 743 737 730 724 719 710 705 705 706 705 707
776 778 780 782 783 784 785 787 787 789 790 789 788 787 785 784 783 782 782 780 779 778 776 773 770 767 764 761 757 754 750 745 741 736 730 723 716 711 707 703 701 702 704
780 781 781 781 782 784 785 786 786 787 787 787 786 785 783 783 782 780 780 778 777 775 772 769 766 763 760 757 754 751 747 743 739 735 729 724 718 713 709 704 700 700 701
782 781 781 781 783 784 785 785 785 785 785 784 783 781 780 780 779 779 777 775 773 771 768 765 761 759 755 752 749 746 743 739 735 732 727 723 718 713 708 704 700 697 698
781 781 782 783 784 784 784 784 784 783 782 781 780 780 779 778 777 776 774 772 770 766 763 760 756 754 750 746 743 739 736 734 730 727 722 718 714 710 706 702 698 693 695
782 783 784 784 783 783 783 782 782 781 780 779 778 777 777 776 774 773 771 769 766 762 759 755 752 749 745 740 737 734 730 726 722 719 716 713 709 705 702 699 694 691 690
Wind_Speed
34 38 33 34 27 28 25 19 19 19 14 12 16 17 17 23 23 24 22 20 18 15 11 10 10 12 16 20 20 19 20 19 15 17 18 18 20 23 17 17 18 21 21
30 29 30 29 25 22 18 20 19 17 14 11 13 17 20 19 21 22 20 15 15 12 14 11 15 15 20 22 20 21 22 20 23 21 24 23 23 25 23 20 22 21 23
18 24 24 22 19 18 17 15 15 14 12 14 17 18 17 18 19 18 16 16 15 15 15 17 17 19 20 20 20 21 21 24 26 27 24 25 26 27 25 23 24 23 23
16 23 27 23 19 15 12 10 9 9 9 9 9 9 11 14 16 15 15 15 17 16 16 17 20 20 23 25 25 26 26 27 29 28 27 27 26 26 26 26 22 20 21
25 22 21 18 14 12 10 9 9 8 9 9 10 10 11 11 12 13 15 14 12 13 15 18 20 25 26 27 26 26 25 27 28 24 23 24 24 24 21 20 13 14 19
20 21 20 17 17 18 16 15 15 13 13 13 11 11 11 9 9 10 7 9 10 12 15 16 17 20 23 25 28 33 36 34 30 26 26 24 25 21 23 18 14 13 5
19 19 19 21 20 20 19 19 17 17 16 15 13 10 10 7 5 5 7 9 8 11 15 16 17 18 21 23 25 27 30 31 33 39 30 30 27 31 25 19 17 16 17
21 21 20 21 21 20 20 20 17 16 15 13 9 5 3 3 3 3 2 4 7 11 14 16 19 21 21 23 28 31 31 30 31 32 36 36 36 33 26 23 21 21 19
21 21 21 21 22 20 19 17 17 13 10 8 6 6 4 7 6 4 1 4 7 11 14 15 17 22 22 26 32 33 33 32 32 33 36 36 35 32 28 24 18 14 13
21 22 22 21 21 23 20 15 12 11 10 9 10 7 5 10 7 1 4 5 7 14 19 22 23 23 26 30 33 28 29 31 29 31 31 34 34 29 28 27 27 18 13
22 22 22 22 19 18 16 13 12 11 12 9 8 6 5 6 6 4 7 9 12 17 18 20 22 25 29 35 35 37 36 36 36 33 33 32 29 28 27 25 26 29 22
23 21 20 19 17 15 15 13 11 11 10 10 9 7 6 7 7 6 8 11 15 16 18 21 23 30 34 33 32 32 32 34 30 28 27 28 27 26 23 23 27 27 26
22 21 20 18 16 15 15 11 11 11 9 8 6 5 6 5 6 8 12 15 15 16 18 21 28 29 30 33 32 33 33 31 29 25 25 26 28 28 28 26 26 26 27
20 19 18 17 15 13 13 9 12 10 8 6 6 5 3 4 5 10 15 18 18 19 22 27 26 26 22 27 27 28 28 25 26 26 25 27 28 27 25 25 25 25 19
18 16 15 15 14 14 14 11 8 7 6 6 7 4 2 2 4 9 13 17 18 21 23 24 23 20 22 23 26 26 29 29 27 29 32 25 25 27 24 19 21 20 18
17 17 15 13 10 13 12 10 8 5 5 3 3 2 0 2 6 10 14 15 17 17 19 19 18 20 20 22 24 27 28 28 30 33 32 32 22 17 13 16 20 19 17
20 16 16 13 12 10 8 7 9 5 3 0 1 3 4 6 8 13 12 13 14 15 13 17 18 20 21 21 23 25 29 30 32 32 34 35 20 19 16 15 19 19 16
20 17 15 14 12 9 7 5 2 2 1 4 4 1 4 5 11 13 10 12 12 14 14 16 18 20 21 21 24 26 29 31 32 37 37 30 17 15 14 16 18 18 17
18 16 14 11 10 8 5 3 1 0 2 2 3 3 6 4 13 10 8 9 11 14 15 15 18 19 21 23 24 26 26 29 32 34 32 36 8 11 12 13 17 20 18
16 15 12 10 8 5 3 1 1 2 4 5 5 7 8 13 18 11 10 11 12 12 15 17 18 19 22 22 24 25 27 28 30 30 30 33 37 15 13 12 15 14 19
11 10 10 7 5 4 2 1 2 4 5 6 7 9 8 11 12 11 11 12 13 13 18 18 18 20 22 23 23 25 25 28 27 28 28 30 30 27 16 12 16 21 19
10 8 7 5 3 2 1 2 3 5 7 8 8 8 10 11 10 11 12 13 15 18 16 18 21 21 21 21 25 26 25 27 27 28 29 31 32 31 27 25 13 15 17
7 6 5 4 3 2 3 3 4 7 6 8 9 11 11 11 11 13 13 16 17 16 19 21 23 21 22 28 24 23 25 26 29 30 29 30 32 30 28 27 14 15 16
6 5 4 2 1 4 4 4 6 8 7 8 9 11 11 12 13 14 15 15 17 18 22 20 20 27 24 24 24 27 28 28 27 28 24 32 31 27 27 27 27 14 15
4 4 3 3 4 5 5 7 7 8 8 9 11 11 12 14 14 14 16 17 19 21 18 25 24 22 26 28 27 26 25 26 28 32 33 29 27 28 27 26 25 16 16
4 3 3 5 6 6 7 7 8 9 9 10 11 12 14 14 15 17 17 19 18 20 26 22 24 25 26 27 28 27 30 32 32 30 26 25 25 25 23 24 23 19 19
Wind_Direction
200 199 197 211 224 229 230 227 236 232 232 237 239 234 215 211 212 208 211 199 198 199 202 214 254 264 274 252 255 258 258 260 264 270 267 276 281 288 267 266 271 267 272
208 187 192 202 206 207 220 228 231 235 231 232 214 206 205 206 206 210 195 187 195 198 214 241 258 262 263 261 262 265 262 263 262 260 262 263 268 272 272 274 268 264 262
221 188 197 184 181 184 190 195 202 210 215 211 207 203 207 213 206 195 208 204 201 203 242 245 255 274 261 262 267 271 270 264 263 263 261 262 262 265 262 271 268 269 268
176 143 145 158 157 153 152 156 165 169 179 181 191 196 191 187 195 204 208 201 206 234 257 252 266 263 263 270 267 265 264 269 264 260 259 262 261 262 266 264 260 271 270
108 113 125 135 140 140 139 139 136 141 148 155 154 159 176 192 199 195 191 208 244 260 263 267 263 271 266 263 259 265 269 275 281 283 281 267 263 261 261 269 264 280 278
110 118 123 122 121 123 125 122 117 119 120 124 133 144 148 149 181 187 205 225 250 266 275 278 280 282 277 273 269 264 268 272 265 261 266 269 271 263 265 271 278 282 291
122 127 127 124 124 128 131 128 128 127 126 126 125 127 141 167 186 224 244 253 267 281 282 283 287 286 288 293 291 286 281 280 280 265 260 264 265 266 268 276 265 264 263
131 130 133 134 134 133 129 121 121 121 123 125 137 156 177 204 170 163 230 281 279 288 296 302 305 306 306 310 310 304 297 291 281 277 271 273 272 270 259 259 263 262 257
136 139 139 137 132 129 126 128 129 130 139 136 144 154 170 122 145 175 277 297 302 311 317 315 312 313 316 314 318 319 310 301 290 281 276 276 276 267 252 248 239 229 251
139 138 137 136 130 128 136 144 147 143 146 148 128 104 72 117 119 110 353 347 337 319 314 314 315 314 310 308 311 316 307 301 304 298 291 279 268 262 250 251 245 227 228
136 132 124 123 133 147 148 142 152 137 130 119 116 102 90 124 92 360 347 347 343 334 327 321 317 314 311 313 311 303 294 295 294 293 291 289 283 251 251 245 244 237 229
130 130 133 142 145 147 143 137 135 133 130 132 121 110 100 77 39 4 350 337 331 335 327 320 316 314 319 322 319 316 310 298 291 290 286 279 273 263 236 231 237 236 238
136 142 148 147 141 142 138 141 127 117 105 101 111 116 89 76 20 330 328 332 341 329 324 316 316 323 329 328 324 320 317 302 284 276 273 278 275 266 248 254 237 233 229
143 138 139 137 133 129 123 111 113 106 106 112 104 85 59 41 326 322 332 337 335 329 325 325 329 326 327 329 334 333 330 323 326 305 273 273 275 266 240 219 210 219 215
138 135 127 128 130 113 109 103 129 114 132 110 116 103 112 50 340 336 340 334 329 321 324 325 318 330 334 335 334 333 331 330 326 326 323 274 273 261 220 211 212 205 207
128 114 116 115 113 126 130 117 103 87 73 89 103 105 51 256 309 337 335 328 323 323 322 317 327 333 333 332 330 329 330 326 328 318 312 302 262 256 212 209 214 207 204
113 115 115 113 105 92 89 128 151 150 141 74 22 358 346 333 333 335 327 326 331 318 324 327 329 331 331 330 330 327 326 325 324 319 316 304 250 241 227 207 204 204 204
122 124 117 112 113 112 104 91 64 71 167 219 249 277 275 306 327 333 330 329 333 335 329 328 330 331 330 329 330 326 326 325 327 327 322 301 234 223 208 206 204 203 206
104 95 102 104 100 98 93 90 85 319 292 302 309 286 191 315 329 340 333 331 330 326 325 326 325 325 327 327 326 325 326 327 326 329 327 342 215 231 236 233 226 209 203
102 99 98 97 96 97 98 67 323 313 306 307 307 298 290 313 336 335 330 331 327 323 327 325 320 323 324 324 325 326 327 329 329 332 336 338 344 269 249 243 233 225 196
89 99 101 99 102 90 62 336 326 312 306 301 301 306 311 333 327 312 327 329 327 331 323 318 324 324 323 323 326 325 323 325 325 329 332 334 332 336 323 259 261 209 196
102 101 98 101 92 90 38 331 321 306 298 301 303 307 320 321 312 318 321 318 320 318 315 319 320 319 319 320 323 318 320 320 323 326 327 330 334 332 330 329 233 194 203
98 101 102 100 71 359 325 291 296 295 305 309 307 309 314 314 316 315 314 315 315 315 317 317 317 315 314 315 316 313 315 315 317 316 316 321 323 321 326 318 276 214 202
83 77 63 40 298 318 284 301 296 290 286 291 304 308 312 318 317 314 314 316 316 315 317 317 311 312 318 318 314 311 308 309 311 310 311 315 313 310 313 313 318 223 210
61 42 14 325 308 297 294 295 297 304 303 309 311 312 317 314 313 316 316 316 314 318 312 312 320 318 313 313 316 319 319 312 304 303 303 302 302 305 308 308 310 239 207
17 350 333 314 309 310 310 310 308 310 313 313 315 317 309 312 314 314 314 313 314 311 315 316 315 317 321 323 319 316 316 320 320 318 316 307 299 300 301 306 304 299 203